TMSAT

导读

TMSAT是泰国(TH)于1998年7月10日08:00发射的国产卫星,是泰国早期航天探索的标志性成果。作为泰国自主航天尝试的先行者,它承载了泰国进入太空领域的初步愿景,为后续泰国发展遥感、通信卫星体系积累了关键技术经验。该卫星的发射开启了泰国本土航天产业发展,推动泰国逐步建立起自主卫星研发与应用能力,也为后续中泰航天深度合作奠定了基础。

基本信息
目录编号:
25396
目录名称:
TMSAT
国际标识:
1998-043C
轨道中心:
EARTH
卫星名称:
TMSAT
卫星全名:
--
卫星状态:
在轨 (已飞行10231 天)
发射日期:
1998-07-10 UTC
国别 :
(TH)
星等 :
--
轨道信息
数据来源 国际轨道数据
星历时间: 2026-07-14T04:17:38+0800
9小时前
查看轨道信息
半长轴: 7184.044km
偏心率: 0.0003772
轨道倾角: 98.988°
近地点辐角 86.977°
升交点赤经 186.610°
平近点角 273.184°
近地点: 803.197km
远地点: 808.617km
周期: 100.998分钟
每日圈数: 14.257696
详细信息
使用方式:
暂无
2D轨道图
3D轨道图
轨道高度分析图
轨道倾角分析图
轨道综合分析图
查看轨道综合分析图